Flag for Italy Weather past 2 weeks in Venice, Italy

Now
82 °F

Passing clouds.


Feels Like: 84 °F
Forecast: 73 / 90 °F
Wind: 7 mph from North

Location: Venice / Tessera

Current Time: Aug 4, 2015 at 11:55:38 AM

Latest Report: Aug 4, 2015 at 10:50 AM


Visibility: N/A

Pressure: 29.95 "Hg

Humidity: 55%

Dew point: 64 °F

Location of VeniceLocation

Historic Weather in Venice — Graph

°F

Venice temperature yesterday

Maximum temperature yesterday: 86 °F (at 4:20 PM)
Minimum temperature yesterday: 68 °F (at 4:20 AM)
Average temperature yesterday: 78 °F

Past Weeks' High & Low Weather Summary

 TemperatureHumidityPressure
High95 °F (Jul 21, 4:20 PM)94% (Jul 21, 2:50 AM)30.04 "Hg (Jul 21, 2:50 AM)
Low63 °F (Aug 1, 5:50 AM)39% (Jul 23, 2:50 PM)29.65 "Hg (Jul 27, 3:20 PM)
Average79 °F65%29.84 "Hg
* Reported Jul 20 10:20 AM — Aug 4 10:50 AM, Venice, Weather by CustomWeather, © 2015

Note: Actual official high and low records may vary slightly from our data, if they occured in-between our weather recording intervals... More about our weather records

Advertising

Venice weather history for previous 24 hours

 ConditionsComfort  
Time TempWeatherWind HumidityBarometerVisibility
10:50 AM
Tue, Aug 4
82 °FPassing clouds.7 mph55%29.95 "HgN/A
10:20 AM82 °FPassing clouds.8 mph55%29.95 "HgN/A
9:50 AM81 °FPassing clouds.7 mph62%29.95 "HgN/A
9:20 AM79 °FSunny.7 mph65%29.95 "Hg10 mi
8:50 AM77 °FPassing clouds.7 mph69%29.95 "HgN/A
8:20 AM77 °FSunny.7 mph69%29.95 "Hg10 mi
7:50 AM75 °FPassing clouds.8 mph74%29.95 "HgN/A
7:20 AM77 °FSunny.8 mph69%29.95 "Hg10 mi
6:50 AM75 °FClear.7 mph74%29.95 "Hg10 mi
6:20 AM73 °FPassing clouds.3 mph78%29.95 "HgN/A
5:50 AM72 °FPassing clouds.3 mph83%29.95 "HgN/A
5:20 AM72 °FClear.6 mph83%29.95 "Hg10 mi
4:50 AM72 °FPassing clouds.7 mph83%29.95 "HgN/A
4:20 AM73 °FPassing clouds.9 mph78%29.98 "HgN/A
3:50 AM73 °FPassing clouds.8 mph78%29.98 "HgN/A
3:20 AM73 °FClear.9 mph78%29.98 "Hg10 mi
2:50 AM73 °FPassing clouds.8 mph78%29.98 "HgN/A
2:20 AM73 °FPassing clouds.8 mph83%29.98 "HgN/A
1:50 AM73 °FPassing clouds.8 mph83%29.98 "HgN/A
1:20 AM75 °FPassing clouds.7 mph78%29.98 "HgN/A
12:50 AM77 °FClear.9 mph74%30.01 "Hg10 mi
12:20 AM75 °FPassing clouds.8 mph78%29.98 "HgN/A
11:50 PM
Mon, Aug 3
75 °FClear.6 mph83%29.98 "Hg10 mi
11:20 PM77 °FPassing clouds.6 mph74%29.98 "HgN/A
10:50 PM77 °FPassing clouds.6 mph74%29.98 "HgN/A
10:20 PM79 °FClear.6 mph70%29.98 "Hg10 mi
9:50 PM79 °FClear.6 mph74%29.98 "Hg10 mi
9:20 PM79 °FSunny.5 mph79%29.98 "Hg10 mi
8:50 PM79 °FSunny.2 mph74%29.98 "Hg10 mi
8:20 PM84 °FSunny.2 mph55%29.95 "Hg10 mi
7:50 PM84 °FPassing clouds.3 mph58%29.95 "HgN/A
7:20 PM84 °FPassing clouds.3 mph58%29.98 "HgN/A
6:50 PM84 °FSunny.6 mph55%29.98 "Hg10 mi
6:20 PM84 °FPassing clouds.7 mph55%29.98 "HgN/A
5:50 PM84 °FPassing clouds.7 mph55%29.98 "HgN/A
5:20 PM84 °FPassing clouds.6 mph51%29.98 "HgN/A
4:50 PM84 °FPassing clouds.7 mph51%29.98 "HgN/A
4:20 PM86 °FPassing clouds.7 mph52%29.98 "HgN/A
3:50 PM84 °FSunny.7 mph51%30.01 "Hg10 mi
3:20 PM84 °FSunny.7 mph51%30.01 "Hg10 mi
2:50 PM84 °FPassing clouds.7 mph51%30.01 "HgN/A
2:20 PM84 °FPassing clouds.7 mph55%30.01 "HgN/A
1:50 PM82 °FPassing clouds.8 mph55%30.01 "HgN/A
1:20 PM82 °FPassing clouds.8 mph55%30.01 "HgN/A
12:50 PM82 °FPassing clouds.7 mph55%30.01 "HgN/A
12:20 PM82 °FSunny.5 mph51%30.01 "Hg10 mi
11:50 AM82 °FSunny.7 mph51%30.01 "Hg10 mi
11:20 AM81 °FPassing clouds.7 mph54%30.01 "HgN/A
Weather by CustomWeather, © 2015

See weather overviewHow to use our weather pages